Regional Weather Roundup
Issued by NWS

Home | Current Version | Previous Version | Graphics & Text | Print | Product List | Glossary Off
Versions: 1 2 3 4 5 6 7 8 9 10 11 12 13 14 15 16 17 18 19 20 21 22 23 24 25 26 27 28 29 30 31 32 33 34 35 36 37 38 39 40 41 42 43 44 45 46 47 48 49 50

000
ASUS43 KLMK 271810
RWRKY
KENTUCKY REGIONAL WEATHER ROUNDUP
NATIONAL WEATHER SERVICE LOUISVILLE KY
200 PM EDT THU JUL 27 2017

NOTE "FAIR" INDICATES FEW OR NO CLOUDS BELOW 12,000 FEET
WITH NO SIGNIFICANT WEATHER AND/OR OBSTRUCTIONS TO VISIBILITY.

KYZ001>023-026-027-061>063-070>075-271900-
WESTERN AND SOUTH CENTRAL KENTUCKY

CITY           SKY/WX    TMP DP  RH WIND       PRES   REMARKS
PADUCAH        CLOUDY    90  76  63 SW8       29.95F HX 101
HENDERSON      CLOUDY    83  77  82 NW5       29.96F HX  92
OWENSBORO      CLOUDY    83  77  82 W3        29.96F HX  92
HOPKINSVILLE   PTSUNNY   89  75  63 SW12      29.97F HX  99
BOWLING GREEN  CLOUDY    90  74  59 W10       29.96F HX  99
GLASGOW        CLOUDY    90  71  54 SW10      29.96F HX  96
$$

KYZ024-025-028>034-038-045-046-053-271900-
NORTH CENTRAL KENTUCKY

CITY           SKY/WX    TMP DP  RH WIND       PRES   REMARKS
LOUISVILLE/SDF CLOUDY    83  75  77 W9        29.94F HX  90
LOUISVILLE/LOU CLOUDY    84  77  79 W7        29.95F HX  94
FORT KNOX      PTSUNNY   81  75  83 W7        29.95F
$$

KYZ035>037-039>044-047>052-055>060-089>105-271900-
NORTHEAST KENTUCKY

CITY           SKY/WX    TMP DP  RH WIND       PRES   REMARKS
LEXINGTON      PTSUNNY   86  73  65 W8        29.96F HX  93
COVINGTON      CLOUDY    84  74  71 W15       29.94F HX  91
FRANKFORT      CLOUDY    85  73  67 NW7       29.94F HX  91
$$

KYZ054-064>069-076>088-106>120-271900-
SOUTHEAST KENTUCKY

CITY           SKY/WX    TMP DP  RH WIND       PRES   REMARKS
JACKSON        CLOUDY    76  72  87 VRB3      29.99F THUNDER
LONDON         MOSUNNY   82  74  76 SW8       29.99F
SOMERSET       MOSUNNY   86  70  58 W10G17    29.99F HX  90
MIDDLESBORO    TSTM      79  68  69 W16G31    30.04R
MONTICELLO     CLOUDY    88  78  72 W14G24    30.01F HX 101
$$





USA.gov is the U.S. government's official web portal to all federal, state and local government web resources and services.